Regional Weather Roundup
Issued by NWS

Home | Current Version | Previous Version | Text Only | Print | Product List | Glossary On
Versions: 1 2 3 4 5 6 7 8 9 10 11 12 13 14 15 16 17 18 19 20 21 22 23 24 25 26 27 28 29 30 31 32 33 34 35 36 37 38 39 40 41 42 43 44 45 46 47 48 49 50
000
ASUS43 KIND 251709
RWRIN

WEATHER ROUNDUP FOR INDIANA
NATIONAL WEATHER SERVICE INDIANAPOLIS IN
100 PM EDT THU MAY 25 2017

NOTE: "FAIR" INDICATES FEW OR NO CLOUDS BELOW 12,000 FEET WITH NO
SIGNIFICANT WEATHER AND/OR OBSTRUCTIONS TO VISIBILITY.

* - STATION DOES NOT REPORT WEATHER SUCH AS PRECIPITATION OR FOG.

+ - STATION NOT QUALITY CONTROLLED BY THE NATIONAL WEATHER SERVICE.
    USE DATA WITH CAUTION...ESPECIALLY DEWPOINT AND RELATIVE
    HUMIDITY OBSERVATIONS.

INZ001>003-010>013-019-020-251800-
NORTHWEST INDIANA

CITY           SKY/WX    TMP DP  RH WIND       PRES   REMARKS
KNOX *+        CLOUDY    55  55 100 NW13G20   29.58S
LA PORTE +     CLOUDY    56  53  89 NW14G21   29.59S
MICHIGAN CITY+ CLOUDY    52  52 100 NW10      29.60F
MONTICELLO +   CLOUDY    58  55  89 N16       29.59R
RENSSELAER +   CLOUDY    57  54  88 NW14G20   29.62R
VALPARAISO     CLOUDY    56  51  84 NW14G20   29.61R

$$

LMZ046-743>745-251800-
SOUTHERN LAKE MICHIGAN

STATION/POSITION TIME  TEMP    WIND        PRES    WAVE
                       AIR SEA DIR/SP/G            HT
                 (UTC) (F)     (DEG/KT/KT) (MB)    (FT)
BURNS HARBOR     1640   49     330/ 13/ 17 1003.7R
MICHIGAN CITY    1640   49     320/ 15/ 16   N/A
5NW MICH CITY    1700   48 51  320/ 14/ 17   N/A     5

$$

INZ004-005-014>016-021>024-251800-
NORTH CENTRAL INDIANA

CITY           SKY/WX    TMP DP  RH WIND       PRES   REMARKS
ELKHART        CLOUDY    59  55  88 NW7       29.56R
GOSHEN         CLOUDY    61  55  81 NW16      29.55R
LOGANSPORT +   CLOUDY    57  54  88 NW13G18   29.58R
ROCHESTER +    CLOUDY    61  57  88 NW12      29.57R
SOUTH BEND     CLOUDY    58  55  90 N15       29.58R
WARSAW +       CLOUDY    59  55  88 NW15      29.55R FOG

$$

INZ006>009-017-018-025>027-251800-
NORTHEAST INDIANA

CITY           SKY/WX    TMP DP  RH WIND       PRES   REMARKS
ANGOLA *+      CLOUDY    57  48  72 N6        29.52S
AUBURN +       DRIZZLE   59  55  88 NW12G17   29.53R
FORT WAYNE     DRIZZLE   62  57  83 NW12      29.52R
HUNTINGTON +   CLOUDY    58  57  96 NW7       29.53R FOG
KENDALLVILLE + CLOUDY    58  57  96 NW8       29.54R FOG

$$

INZ028-029-035-036-043>045-051>053-251800-
WEST CENTRAL INDIANA

CITY           SKY/WX    TMP DP  RH WIND       PRES   REMARKS
CRAWFORDSVL +  CLOUDY    59  58  96 NW15      29.61R
GREENCASTLE +  CLOUDY    59  54  82 NW8       29.61R
LAFAYETTE      CLOUDY    62  56  80 NW14G28   29.60R
TERRE HAUTE    CLOUDY    61  53  75 NW12G20   29.64R

$$

INZ030>032-037>040-046>048-054>057-064-065-251800-
CENTRAL INDIANA

CITY           SKY/WX    TMP DP  RH WIND       PRES   REMARKS
CP ATTERBURY + CLOUDY    59  55  88 NW10      29.57R
FISHERS *+     CLOUDY    57  57 100 NW9G16    29.57R
FRANKFORT +    CLOUDY    61  57  86 N9G20     29.60R
GREENWOOD *+   CLOUDY   N/A N/A N/A NW12      29.58R
INDIANAPOLIS   CLOUDY    59  56  89 NW17      29.57R
-EAGLE CREEK   CLOUDY    59  55  87 NW15      29.57R
KOKOMO +       CLOUDY    59  56  89 NW17      29.56R
MARION +       RAIN      59  55  88 NW10G21   29.55R
MT COMFORT *+  CLOUDY    57  55  94 NW18G25   29.56R
SHELBYVILLE    CLOUDY    60  55  83 NW18      29.55R
ZIONSVILLE +   CLOUDY    57  55  93 NW15G21   29.57R FOG

$$

INZ033-034-041-042-049-050-058-059-251800-
EAST CENTRAL INDIANA

CITY           SKY/WX    TMP DP  RH WIND       PRES   REMARKS
MUNCIE         LGT RAIN  62  58  86 NW16      29.52R FOG
RICHMOND +     CLOUDY    63  59  88 N9        29.49R

$$

INZ060-061-067>069-081>083-085>088-251800-
SOUTHWEST INDIANA

CITY           SKY/WX    TMP DP  RH WIND       PRES   REMARKS
EVANSVILLE     CLOUDY    67  55  65 NW13      29.69R
HUNTINGBURG *+ CLOUDY    64  57  78 W18       29.65R
WASHINGTON +   CLOUDY    63  53  70 NW16G22   29.65R

$$

INZ062-063-066-070>080-084-089>092-251800-
SOUTH CENTRAL AND SOUTHEAST INDIANA

CITY           SKY/WX    TMP DP  RH WIND       PRES   REMARKS
BEDFORD +      CLOUDY    59  54  82 W7G20     29.61R
BLOOMINGTON    CLOUDY    62  55  77 W12G18    29.60R
MADISON *+     CLOUDY    57  55  94 W10G20    29.58R
NORTH VERNON + CLOUDY    57  55  94 W13G23    29.56R
SEYMOUR +      CLOUDY    61  55  82 NW13G26   29.58R

$$




USA.gov is the U.S. government's official web portal to all federal, state and local government web resources and services.